Starlink 31932

operational
NORAD ID: 59929 Int'l Des: 2024-106 Owner: SPXS Country: US Constellation: starlink
LEOCIRCULAR

About Starlink 31932

Description loading...

Live Position

Loading 3D Globe...

Upcoming Passes

Altitude History

Altitude vs Time

uPlot chart will show altitude changes over time

Two-Line Element Set

1 59929U 24106H 25302.49191362 -.00150651 00000-0 -55808-2 0 9992
2 59929 42.9989 350.2506 0000558 218.1386 141.9426 15.27559702 80496
Epoch: Oct 29, 2025 • Age: 33 hours

Current Status

Altitude 486.8 km
Velocity 7.63 km/s
Sub-Earth Point 38.07°N, 43.95°E
Launch Date Jun 1, 2024
Age 1.4 years
Type internet

Technical Details

Classification Payload
Mass 730.00 kg
Dry Mass 700.00 kg
Total Mass 730.00 kg
Length 0.30 m
Diameter 4.10 m
Span 29.00 m
Shape Box + pan
Manufacturer SPXS
Bus Type Starlink V2M
Phase Status In Orbit
Owner/State SPXS/US

Large Constellations

Loading constellations...